Date String (YYYY-MM-DD hh:mm:ss) UTC,Instrument flags,Ambient pressure (hPa),Sample flow (lpm),Bypass flow (lpm),Sample temperature (°C),Ambient temperature (°C),ASC tube jacket temperature (°C),LED temperature (°C),Box temperature (°C),Sample RH (%),Span deviation,Mass concentration (μg/m³),Mass concentration (μg/m³),Mass concentration (μg/m³)
DateTimeUTC,F1_M11,P_M11,Q1_M11,Q2_M11,T1_M11,T2_M11,T3_M11,T4_M11,T5_M11,U1_M11,ZSPAN_M11,X0_M11,X2_M11,X1_M11
2022-12-23 04:00:00,,0830.3,5.01,0.00,21.4,20.8,00.0,30.2,22.8,02.3,0002.3,0009.80,0004.83,0004.37
2022-12-23 04:01:00,,0830.3,4.97,0.00,21.2,19.6,00.0,30.2,22.4,02.4,0003.3,0009.79,0004.80,0004.33
2022-12-23 04:02:00,,0830.4,5.04,0.00,21.1,19.6,00.0,30.1,22.4,02.4,0003.6,0009.65,0004.72,0004.27
2022-12-23 04:03:00,,0830.3,5.03,0.00,21.2,20.5,00.0,30.0,22.7,02.4,0002.5,0009.67,0004.68,0004.21
2022-12-23 04:04:00,,0830.3,4.96,0.00,21.3,21.1,00.0,30.0,22.9,02.3,0001.4,0009.86,0004.62,0004.15
2022-12-23 04:05:00,,0830.2,5.03,0.00,21.4,21.5,00.0,30.0,23.1,02.3,0000.0,0009.22,0004.56,0004.10
2022-12-23 04:06:00,,0830.1,4.97,0.00,21.5,21.9,00.0,30.0,23.2,02.3,0000.0,0009.19,0004.50,0004.04
2022-12-23 04:07:00,,0830.2,5.00,0.00,21.6,22.1,00.0,30.1,23.3,02.3,0000.2,0009.03,0004.42,0003.98
2022-12-23 04:08:00,,0830.4,5.01,0.00,21.7,22.0,00.0,30.1,23.3,02.3,0000.8,0008.57,0004.39,0003.94
2022-12-23 04:09:00,,0830.2,5.00,0.00,21.6,20.8,00.0,30.2,23.0,02.3,0003.2,0008.26,0004.40,0003.91
2022-12-23 04:10:00,,0830.2,4.97,0.00,21.4,19.7,00.0,30.2,22.6,02.3,0003.1,0008.14,0004.40,0003.89
2022-12-23 04:11:00,,0830.3,5.01,0.00,21.2,18.9,00.0,30.2,22.3,02.3,0003.0,0008.06,0004.37,0003.87
2022-12-23 04:12:00,,0830.3,5.03,0.00,21.2,19.6,00.0,30.1,22.4,02.4,0003.1,0007.94,0004.31,0003.84
2022-12-23 04:13:00,,0830.2,4.99,0.00,21.3,20.5,00.0,30.1,22.7,02.3,0002.7,0008.19,0004.32,0003.84
2022-12-23 04:14:00,,0830.3,5.00,0.00,21.3,21.3,00.0,30.1,22.9,02.3,0002.3,0008.89,0004.33,0003.83
2022-12-23 04:15:00,,0830.5,4.97,0.00,21.4,21.8,00.0,30.1,23.1,02.3,0002.5,0008.63,0004.31,0003.83
2022-12-23 04:16:00,,0830.4,5.03,0.00,21.5,21.9,00.0,30.1,23.2,02.3,0002.7,0008.49,0004.31,0003.83
2022-12-23 04:17:00,,0830.4,5.00,0.00,21.4,20.8,00.0,30.2,22.9,02.3,0002.7,0009.41,0004.32,0003.82
2022-12-23 04:18:00,,0830.4,4.97,0.00,21.3,19.8,00.0,30.2,22.5,02.3,0002.0,0009.51,0004.36,0003.82
2022-12-23 04:19:00,,0830.4,5.03,0.00,21.2,19.7,00.0,30.1,22.5,02.3,0001.1,0009.43,0004.33,0003.81
2022-12-23 04:20:00,,0830.4,5.00,0.00,21.3,20.5,00.0,30.1,22.7,02.3,0000.9,0009.49,0004.34,0003.80
2022-12-23 04:21:00,,0830.3,4.98,0.00,21.4,21.2,00.0,30.1,22.9,02.3,0000.7,0009.53,0004.34,0003.80
2022-12-23 04:22:00,,0830.4,5.04,0.00,21.4,21.7,00.0,30.1,23.1,02.3,0000.4,0009.55,0004.34,0003.81
2022-12-23 04:23:00,,0830.4,4.96,0.00,21.5,21.9,00.0,30.1,23.2,02.3,0001.0,0009.59,0004.34,0003.80
2022-12-23 04:24:00,,0830.3,5.03,0.00,21.5,20.9,00.0,30.2,23.0,02.3,0001.4,0009.58,0004.35,0003.81
2022-12-23 04:25:00,,0830.3,4.95,0.00,21.3,19.8,00.0,30.2,22.6,02.3,0002.1,0009.09,0004.32,0003.81
2022-12-23 04:26:00,,0830.3,5.01,0.00,21.2,19.8,00.0,30.1,22.5,02.3,0002.2,0010.13,0004.33,0003.82
2022-12-23 04:27:00,,0830.1,5.04,0.00,21.3,20.8,00.0,30.1,22.8,02.3,0001.6,0010.42,0004.36,0003.83
2022-12-23 04:28:00,,0830.3,4.97,0.00,21.4,21.6,00.0,30.1,23.1,02.3,0001.0,0009.39,0004.35,0003.83
2022-12-23 04:29:00,,0830.4,5.04,0.00,21.5,22.3,00.0,30.1,23.3,02.3,0001.4,0009.29,0004.31,0003.82
2022-12-23 04:30:00,,0830.3,4.97,0.00,21.6,21.9,00.0,30.2,23.3,02.3,0001.8,0009.36,0004.33,0003.82
2022-12-23 04:31:00,,0830.2,5.03,0.00,21.5,21.0,00.0,30.2,23.1,02.3,0002.2,0009.27,0004.30,0003.83
2022-12-23 04:32:00,,0830.3,4.95,0.00,21.4,20.2,00.0,30.2,22.8,02.3,0002.5,0009.17,0004.26,0003.82
2022-12-23 04:33:00,,0830.4,5.02,0.00,21.3,19.8,00.0,30.2,22.7,02.3,0002.6,0009.15,0004.25,0003.82
2022-12-23 04:34:00,,0830.4,5.02,0.00,21.4,20.7,00.0,30.2,22.9,02.3,0002.7,0009.31,0004.22,0003.80
2022-12-23 04:35:00,,0830.4,4.96,0.00,21.5,21.6,00.0,30.2,23.2,02.3,0002.9,0009.70,0004.16,0003.78
2022-12-23 04:36:00,,0830.3,5.04,0.00,21.6,22.2,00.0,30.2,23.3,02.3,0002.6,0009.59,0004.16,0003.76
2022-12-23 04:37:00,,0830.4,4.98,0.00,21.6,21.8,00.0,30.2,23.3,02.3,0002.4,0008.29,0004.13,0003.75
2022-12-23 04:38:00,,0830.4,5.01,0.00,21.6,21.0,00.0,30.3,23.2,02.3,0002.3,0008.08,0004.11,0003.73
2022-12-23 04:39:00,,0830.4,5.03,0.00,21.5,20.4,00.0,30.3,23.0,02.3,0002.5,0008.15,0004.12,0003.72
2022-12-23 04:40:00,,0830.4,4.98,0.00,21.4,20.2,00.0,30.3,22.9,02.3,0000.5,0008.16,0004.14,0003.73
2022-12-23 04:41:00,,0830.5,4.97,0.00,21.5,21.0,00.0,30.2,23.1,02.3,0001.0,0008.15,0004.13,0003.73
2022-12-23 04:42:00,,0830.4,5.04,0.00,21.6,21.8,00.0,30.2,23.3,02.3,0000.4,0008.19,0004.14,0003.74
2022-12-23 04:43:00,,0830.4,4.96,0.00,21.7,21.9,00.0,30.3,23.4,02.3,0000.0,0008.71,0004.18,0003.74
2022-12-23 04:44:00,,0830.4,5.04,0.00,21.6,21.3,00.0,30.3,23.3,02.3,0000.0,0008.85,0004.17,0003.73
2022-12-23 04:45:00,,0830.4,5.00,0.00,21.6,20.6,00.0,30.3,23.1,02.3,0000.0,0008.86,0004.21,0003.74
2022-12-23 04:46:00,,0830.6,4.96,0.00,21.5,20.1,00.0,30.3,22.9,02.3,0000.0,0008.24,0004.23,0003.76
2022-12-23 04:47:00,,0830.5,5.02,0.00,21.5,20.6,00.0,30.3,23.1,02.3,0000.0,0008.47,0004.22,0003.77
2022-12-23 04:48:00,,0830.5,5.03,0.00,21.6,21.5,00.0,30.3,23.3,02.3,0000.0,0008.62,0004.25,0003.79
2022-12-23 04:49:00,,0830.5,4.96,0.00,21.7,22.1,00.0,30.3,23.5,02.3,0000.0,0008.54,0004.26,0003.80
2022-12-23 04:50:00,,0830.5,5.03,0.00,21.8,22.1,00.0,30.3,23.6,02.2,0000.0,0008.43,0004.23,0003.81
2022-12-23 04:51:00,,0830.4,4.95,0.00,21.7,21.3,00.0,30.4,23.4,02.2,0000.0,0008.35,0004.21,0003.80
2022-12-23 04:52:00,,0830.3,5.02,0.00,21.7,20.5,00.0,30.4,23.1,02.2,0000.0,0008.31,0004.21,0003.81
2022-12-23 04:53:00,,0830.4,5.03,0.00,21.6,20.0,00.0,30.4,23.0,02.3,0000.0,0008.26,0004.22,0003.83
2022-12-23 04:54:00,,0830.4,5.01,0.00,21.6,20.6,00.0,30.4,23.1,02.2,0000.0,0007.78,0004.22,0003.84
2022-12-23 04:55:00,,0830.4,4.98,0.00,21.6,21.4,00.0,30.3,23.3,02.2,0003.1,0007.66,0004.25,0003.86
2022-12-23 04:56:00,,0830.5,5.03,0.00,21.7,22.2,00.0,30.4,23.6,02.2,0002.9,0007.61,0004.26,0003.89
2022-12-23 04:57:00,,0830.4,4.96,0.00,21.8,22.1,00.0,30.4,23.6,02.2,0002.9,0007.66,0004.29,0003.91
2022-12-23 04:58:00,,0830.4,5.04,0.00,21.8,21.4,00.0,30.5,23.4,02.2,0003.2,0007.41,0004.33,0003.94
2022-12-23 04:59:00,,0830.4,4.96,0.00,21.7,20.7,00.0,30.5,23.2,02.2,0002.8,0007.16,0004.34,0003.96
